| time (UTC) | temp F | wind direction | speed MPH | gust MPH | rain 1hr in | rain 24hr in | rain mn in | humidity % | barometer mb |
| 20260901135609 | 76 | 225 | 1.0 | 4.0 | 0.00 | 0.01 | 0.00 | 1020.4 | |
| 20260901134604 | 75 | 203 | 0.0 | 3.0 | 0.00 | 0.01 | 0.00 | 1020.4 | |
| 20260901133600 | 78 | 153 | 1.0 | 5.0 | 0.00 | 0.01 | 0.00 | 1020.4 | |
| 20260901132557 | 73 | 0.0 | 0.0 | 0.00 | 0.01 | 0.00 | 1020.5 | ||
| 20260901131554 | 74 | 0.0 | 2.0 | 0.00 | 0.01 | 0.00 | 1020.6 | ||
| 20260901130550 | 76 | 0.0 | 1.0 | 0.00 | 0.01 | 0.00 | 1020.5 | ||
| 20260901125546 | 76 | 317 | 2.0 | 8.0 | 0.00 | 0.01 | 0.00 | 1020.6 | |
| 20260901124542 | 75 | 0.0 | 2.0 | 0.00 | 0.01 | 0.00 | 1020.7 | ||
| 20260901123538 | 76 | 45 | 0.0 | 3.0 | 0.00 | 0.01 | 0.00 | 1020.7 | |
| 20260901122534 | 75 | 270 | 1.0 | 6.0 | 0.00 | 0.01 | 0.00 | 1020.8 | |
| 20260901121532 | 76 | 223 | 2.0 | 8.0 | 0.00 | 0.01 | 0.00 | 1020.8 | |
| 20260901120526 | 76 | 158 | 2.0 | 5.0 | 0.00 | 0.01 | 0.00 | 1020.7 | |
| 20260901115523 | 76 | 226 | 2.0 | 8.0 | 0.00 | 0.01 | 0.00 | 1020.8 | |
| 20260901114519 | 74 | 226 | 1.0 | 4.0 | 0.00 | 0.01 | 0.00 | 1020.9 | |
| 20260901113516 | 73 | 102 | 0.0 | 6.0 | 0.00 | 0.01 | 0.00 | 1021.0 | |
| 20260901112612 | 74 | 258 | 2.0 | 5.0 | 0.00 | 0.01 | 0.00 | 1020.9 | |
| 20260901111608 | 74 | 230 | 3.0 | 6.0 | 0.00 | 0.01 | 0.00 | 1020.9 | |
| 20260901110605 | 73 | 270 | 5.0 | 8.0 | 0.00 | 0.01 | 0.00 | 1021.0 | |
| 20260901105601 | 71 | 317 | 2.0 | 7.0 | 0.00 | 0.01 | 0.00 | 1021.1 | |
| 20260901104557 | 71 | 61 | 1.0 | 6.0 | 0.00 | 0.01 | 0.00 | 1021.0 | |
| 20260901103553 | 71 | 324 | 1.0 | 6.0 | 0.00 | 0.01 | 0.00 | 1021.1 | |
| 20260901102550 | 72 | 260 | 2.0 | 9.0 | 0.00 | 0.01 | 0.00 | 1021.3 | |
| 20260901101545 | 71 | 176 | 2.0 | 11.0 | 0.00 | 0.01 | 0.00 | 1021.2 | |
| 20260901100542 | 70 | 315 | 2.0 | 4.0 | 0.00 | 0.01 | 0.00 | 1021.3 | |
| 20260901095538 | 71 | 245 | 0.0 | 3.0 | 0.00 | 0.01 | 0.00 | 1021.2 | |
| 20260901094534 | 70 | 338 | 1.0 | 4.0 | 0.00 | 0.01 | 0.00 | 1021.3 | |
| 20260901093530 | 70 | 258 | 2.0 | 5.0 | 0.00 | 0.01 | 0.00 | 1021.3 | |
| 20260901092527 | 70 | 259 | 3.0 | 8.0 | 0.00 | 0.01 | 0.00 | 1021.3 | |
| 20260901091523 | 69 | 252 | 3.0 | 8.0 | 0.00 | 0.01 | 0.00 | 1021.3 | |
| 20260901090519 | 69 | 90 | 1.0 | 3.0 | 0.00 | 0.01 | 0.00 | 1021.3 | |
| 20260901085615 | 69 | 248 | 2.0 | 8.0 | 0.00 | 0.01 | 0.00 | 1021.3 | |
| 20260901084612 | 68 | 349 | 2.0 | 5.0 | 0.00 | 0.01 | 0.00 | 1021.3 | |
| 20260901083608 | 68 | 315 | 0.0 | 4.0 | 0.00 | 0.01 | 0.00 | 1021.4 | |
| 20260901082604 | 68 | 277 | 2.0 | 5.0 | 0.00 | 0.01 | 0.00 | 1021.2 | |
| 20260901081600 | 67 | 0.0 | 2.0 | 0.00 | 0.01 | 0.00 | 1021.2 | ||
| 20260901080557 | 66 | 0.0 | 0.0 | 0.00 | 0.01 | 0.00 | 1021.2 | ||
| 20260901075553 | 67 | 0.0 | 2.0 | 0.00 | 0.01 | 0.00 | 1021.1 | ||
| 20260901074550 | 66 | 0.0 | 0.0 | 0.00 | 0.01 | 0.00 | 1021.1 | ||
| 20260901073546 | 65 | 180 | 0.0 | 2.0 | 0.00 | 0.01 | 0.00 | 1021.1 | |
| 20260901072542 | 65 | 0.0 | 0.0 | 0.00 | 0.01 | 0.00 | 1020.9 | ||
| 20260901071539 | 65 | 0.0 | 0.0 | 0.00 | 0.01 | 0.00 | 1020.8 | ||
| 20260901070535 | 64 | 0.0 | 0.0 | 0.00 | 0.01 | 0.00 | 1020.9 | ||
| 20260901065531 | 63 | 0.0 | 0.0 | 0.00 | 0.01 | 0.00 | 1020.9 | ||
| 20260901064527 | 63 | 0.0 | 0.0 | 0.00 | 0.01 | 0.00 | 1020.9 | ||
| 20260901063523 | 63 | 0.0 | 2.0 | 0.00 | 0.01 | 0.00 | 1020.8 | ||
| 20260901062520 | 62 | 0.0 | 0.0 | 0.00 | 0.01 | 0.00 | 11 | 1020.9 | |
| 20260901061516 | 61 | 0.0 | 0.0 | 0.00 | 0.01 | 0.00 | 15 | 1020.8 | |
| 20260901060612 | 59 | 0.0 | 0.0 | 0.00 | 0.01 | 0.00 | 14 | 1020.8 | |
| 20260901055609 | 59 | 0.0 | 0.0 | 0.00 | 0.01 | 0.00 | 15 | 1020.7 | |
| 20260901054606 | 58 | 0.0 | 0.0 | 0.00 | 0.01 | 0.00 | 14 | 1020.6 | |
| 20260901052558 | 58 | 0.0 | 0.0 | 0.00 | 0.01 | 0.00 | 14 | 1020.5 | |
| 20260901051554 | 57 | 0.0 | 0.0 | 0.00 | 0.01 | 0.00 | 14 | 1020.4 | |
| 20260901050550 | 57 | 0.0 | 0.0 | 0.00 | 0.01 | 0.00 | 10 | 1020.4 | |
| 20260901045547 | 56 | 0.0 | 0.0 | 0.00 | 0.01 | 0.00 | 1020.4 | ||
| 20260901044543 | 56 | 0.0 | 0.0 | 0.00 | 0.01 | 0.00 | 1020.4 | ||
| 20260901043539 | 55 | 0.0 | 0.0 | 0.00 | 0.02 | 0.00 | 1020.3 | ||
| 20260901042536 | 55 | 0.0 | 0.0 | 0.00 | 0.04 | 0.00 | 1020.3 | ||
| 20260901041533 | 55 | 0.0 | 0.0 | 0.00 | 0.04 | 0.00 | 1020.2 | ||
| 20260901040528 | 55 | 0.0 | 0.0 | 0.00 | 0.04 | 0.00 | 1020.1 | ||
| 20260901035524 | 55 | 0.0 | 0.0 | 0.00 | 0.04 | 0.00 | 1020.0 | ||
| 20260901033518 | 56 | 0.0 | 0.0 | 0.00 | 0.04 | 0.00 | 1019.9 | ||
| 20260901032614 | 56 | 90 | 0.0 | 2.0 | 0.00 | 0.04 | 0.00 | 1019.9 | |
| 20260901031610 | 57 | 90 | 0.0 | 2.0 | 0.00 | 0.04 | 0.00 | 1019.6 | |
| 20260901030607 | 57 | 225 | 1.0 | 4.0 | 0.00 | 0.06 | 0.00 | 1019.6 | |
| 20260901025602 | 57 | 225 | 0.0 | 5.0 | 0.00 | 0.07 | 0.00 | 1019.5 | |
| 20260901024559 | 57 | 202 | 0.0 | 3.0 | 0.00 | 0.11 | 0.00 | 1019.5 | |
| 20260901023555 | 58 | 269 | 1.0 | 4.0 | 0.00 | 0.12 | 0.00 | 1019.5 | |
| 20260901022551 | 58 | 241 | 3.0 | 8.0 | 0.00 | 0.12 | 0.00 | 1019.4 | |
| 20260901021547 | 57 | 248 | 1.0 | 5.0 | 0.00 | 0.12 | 0.00 | 1019.3 | |
| 20260901020543 | 57 | 180 | 1.0 | 3.0 | 0.00 | 0.12 | 0.00 | 1019.4 | |
| 20260901015540 | 57 | 0.0 | 2.0 | 0.00 | 0.12 | 0.00 | 1019.3 | ||
| 20260901014536 | 57 | 0.0 | 0.0 | 0.00 | 0.12 | 0.00 | 1019.2 | ||
| 20260901013531 | 57 | 0.0 | 3.0 | 0.00 | 0.12 | 0.00 | 1019.3 | ||
| 20260901012528 | 57 | 0.0 | 0.0 | 0.00 | 0.12 | 0.00 | 1019.3 | ||
| 20260901011524 | 57 | 0.0 | 0.0 | 0.00 | 0.12 | 0.00 | 1019.2 | ||
| 20260901010520 | 57 | 0.0 | 0.0 | 0.00 | 0.12 | 0.00 | 1019.2 | ||
| 20260901005517 | 57 | 0.0 | 0.0 | 0.00 | 0.12 | 0.00 | 1019.1 | ||
| 20260901004614 | 58 | 0.0 | 0.0 | 0.00 | 0.12 | 0.00 | 1019.1 | ||
| 20260901003609 | 58 | 0.0 | 0.0 | 0.00 | 0.12 | 0.00 | 1018.9 | ||
| 20260901002606 | 58 | 0.0 | 1.0 | 0.00 | 0.12 | 0.00 | 1018.9 | ||
| 20260901001602 | 59 | 0.0 | 0.0 | 0.00 | 0.12 | 0.00 | 1018.7 | ||
| 20260901000558 | 59 | 0.0 | 0.0 | 0.00 | 0.12 | 0.00 | 1018.7 | ||
| 20260831235554 | 59 | 193 | 1.0 | 3.0 | 0.00 | 0.12 | 0.00 | 1018.7 | |
| 20260831234551 | 59 | 135 | 0.0 | 3.0 | 0.00 | 0.12 | 0.00 | 1018.7 | |
| 20260831233546 | 59 | 230 | 1.0 | 4.0 | 0.00 | 0.12 | 0.00 | 1018.9 | |
| 20260831232543 | 59 | 180 | 1.0 | 4.0 | 0.00 | 0.12 | 0.00 | 1018.8 | |
| 20260831231539 | 59 | 208 | 2.0 | 5.0 | 0.00 | 0.12 | 0.00 | 1018.8 | |
| 20260831230535 | 58 | 180 | 2.0 | 3.0 | 0.00 | 0.12 | 0.00 | 1018.8 | |
| 20260831225531 | 58 | 243 | 1.0 | 3.0 | 0.00 | 0.12 | 0.00 | 1018.8 | |
| 20260831224528 | 59 | 225 | 0.0 | 3.0 | 0.00 | 0.12 | 0.00 | 1018.7 | |
| 20260831223524 | 59 | 173 | 1.0 | 3.0 | 0.00 | 0.12 | 0.00 | 1018.7 | |
| 20260831222520 | 60 | 254 | 1.0 | 4.0 | 0.00 | 0.12 | 0.00 | 1018.6 | |
| 20260831221518 | 60 | 237 | 2.0 | 5.0 | 0.00 | 0.12 | 0.00 | 1018.6 | |
| 20260831220612 | 60 | 225 | 3.0 | 5.0 | 0.00 | 0.12 | 0.00 | 1018.7 | |
| 20260831215609 | 61 | 225 | 2.0 | 5.0 | 0.00 | 0.12 | 0.12 | 1018.7 | |
| 20260831214605 | 61 | 218 | 2.0 | 5.0 | 0.00 | 0.12 | 0.12 | 1018.6 | |
| 20260831213602 | 61 | 203 | 1.0 | 4.0 | 0.00 | 0.12 | 0.12 | 1018.4 | |
| 20260831212557 | 62 | 246 | 3.0 | 6.0 | 0.00 | 0.12 | 0.12 | 1018.4 | |
| 20260831211554 | 62 | 299 | 2.0 | 7.0 | 0.00 | 0.12 | 0.12 | 1018.4 | |
| 20260831210550 | 62 | 180 | 2.0 | 7.0 | 0.00 | 0.12 | 0.12 | 1018.3 | |
| 20260831205547 | 62 | 238 | 3.0 | 11.0 | 0.00 | 0.12 | 0.12 | 1018.2 | |
| 20260831204542 | 62 | 205 | 1.0 | 4.0 | 0.00 | 0.12 | 0.12 | 1018.0 | |
| 20260831203538 | 62 | 225 | 0.0 | 2.0 | 0.00 | 0.12 | 0.12 | 1017.7 | |
| 20260831202535 | 62 | 272 | 2.0 | 6.0 | 0.00 | 0.12 | 0.12 | 1017.6 | |
| 20260831201531 | 62 | 232 | 3.0 | 7.0 | 0.00 | 0.12 | 0.12 | 1017.6 | |
| 20260831200526 | 62 | 225 | 2.0 | 6.0 | 0.00 | 0.12 | 0.12 | 1017.6 | |
| 20260831195523 | 62 | 248 | 2.0 | 5.0 | 0.00 | 0.12 | 0.12 | 1017.7 | |
| 20260831194519 | 62 | 216 | 3.0 | 9.0 | 0.00 | 0.12 | 0.12 | 1017.3 | |
| 20260831193515 | 62 | 276 | 2.0 | 8.0 | 0.00 | 0.12 | 0.12 | 1017.1 | |
| 20260831192612 | 62 | 282 | 1.0 | 6.0 | 0.00 | 0.12 | 0.12 | 1017.2 | |
| 20260831191609 | 62 | 301 | 2.0 | 8.0 | 0.01 | 0.12 | 0.12 | 1017.1 | |
| 20260831190604 | 63 | 180 | 1.0 | 4.0 | 0.01 | 0.12 | 0.12 | 1016.7 | |
| 20260831185601 | 63 | 285 | 3.0 | 6.0 | 0.01 | 0.12 | 0.12 | 1016.7 | |
| 20260831184557 | 63 | 230 | 1.0 | 4.0 | 0.01 | 0.12 | 0.12 | 1016.8 | |
| 20260831183554 | 64 | 213 | 1.0 | 7.0 | 0.01 | 0.12 | 0.12 | 1016.7 | |
| 20260831182549 | 65 | 206 | 1.0 | 4.0 | 0.01 | 0.12 | 0.12 | 1016.7 | |
| 20260831181546 | 66 | 45 | 1.0 | 6.0 | 0.00 | 0.11 | 0.11 | 1016.6 | |
| 20260831180542 | 66 | 225 | 2.0 | 4.0 | 0.00 | 0.11 | 0.11 | 1016.3 | |
| 20260831175538 | 66 | 268 | 1.0 | 8.0 | 0.00 | 0.11 | 0.11 | 1015.9 | |
| 20260831174535 | 67 | 315 | 1.0 | 4.0 | 0.00 | 0.11 | 0.11 | 1015.6 | |
| 20260831173530 | 68 | 0.0 | 2.0 | 0.00 | 0.11 | 0.11 | 1015.3 | ||
| 20260831172527 | 69 | 0.0 | 2.0 | 0.00 | 0.11 | 0.11 | 1015.4 | ||
| 20260831171523 | 69 | 0.0 | 0.0 | 0.00 | 0.11 | 0.11 | 1015.2 | ||
| 20260831170519 | 71 | 0.0 | 0.0 | 0.00 | 0.11 | 0.11 | 1015.2 | ||
| 20260831165516 | 70 | 0.0 | 1.0 | 0.00 | 0.11 | 0.11 | 1015.1 | ||
| 20260831164612 | 70 | 270 | 0.0 | 4.0 | 0.00 | 0.11 | 0.11 | 1015.1 | |
| 20260831163608 | 70 | 245 | 2.0 | 10.0 | 0.00 | 0.11 | 0.11 | 1015.2 | |
| 20260831161602 | 72 | 0.0 | 2.0 | 0.00 | 0.11 | 0.11 | 1015.3 | ||
| 20260831160557 | 72 | 0.0 | 2.0 | 0.00 | 0.11 | 0.11 | 1015.1 | ||
| 20260831155553 | 72 | 315 | 1.0 | 4.0 | 0.00 | 0.11 | 0.11 | 1015.0 | |
| 20260831154550 | 74 | 23 | 1.0 | 5.0 | 0.00 | 0.11 | 0.11 | 1015.0 | |
| 20260831153546 | 75 | 25 | 1.0 | 4.0 | 0.00 | 0.11 | 0.11 | 1014.9 | |
| 20260831152542 | 74 | 241 | 0.0 | 4.0 | 0.00 | 0.11 | 0.11 | 1014.8 | |
| 20260831151538 | 72 | 315 | 2.0 | 5.0 | 0.00 | 0.11 | 0.11 | 1015.0 | |
| 20260831150535 | 72 | 248 | 2.0 | 4.0 | 0.00 | 0.11 | 0.11 | 1015.2 | |
| 20260831145531 | 73 | 325 | 2.0 | 6.0 | 0.00 | 0.11 | 0.11 | 1015.0 | |
| 20260831144527 | 74 | 204 | 5.0 | 11.0 | 0.00 | 0.11 | 0.11 | 1015.0 | |
| 20260831143523 | 74 | 298 | 5.0 | 13.0 | 0.00 | 0.11 | 0.11 | 1015.2 | |
| 20260831142519 | 74 | 232 | 4.0 | 11.0 | 0.00 | 0.11 | 0.11 | 1015.2 | |
| 20260831141516 | 74 | 211 | 3.0 | 9.0 | 0.00 | 0.11 | 0.11 | 1015.1 | |
| 20260831140612 | 73 | 45 | 1.0 | 3.0 | 0.00 | 0.11 | 0.11 | 1015.3 |